Погода в Санта-Крус-де-ла-Сьерра

Боливия     17°47′21″S   63°11′12″W
темп.,
°C
ветер,
м/с
пор.,
м/с
влажн.,
%
обл.,
%
осадки,
мм/ч
давл.,
гПа
погр.,
м
14 апреля, ср
ср1423:00+22зюз116517 0.0 101620
02:00+21ююз1169100 0.0 101517
05:00+20ю1172100 0.0 101432
08:00+23ююв116275 0.0 1015159
11:00+31ссв34415 0.0 10141405
14:00+32ссз563632 0.0 10092351
17:00+29сз364784 0.0 1007918
20:00+26зсз285628 0.0 1009274
15 апреля, чт
чт1523:00+24с256598 0.0 1011190
02:00+24ссз3867100 0.0 1010288
05:00+23ссз397477 0.0 1010344
08:00+24ссз497221 0.0 1012389
11:00+30сз6104792 0.0 10111611
14:00+30ссз694759 0.0 10081712
17:00+30сз58490 0.0 10071385
20:00+24зсз27693 0.0 1009149
16 апреля, пт
пт1623:00+24сз386714 0.0 1010215
02:00+22сз397454 0.0 1009210
05:00+21сз39775 0.0 1009216
08:00+25ссз48667 0.0 1011300
11:00+32ссз58433 0.0 10111765
14:00+33ссз673734 0.0 10072391
17:00+31сз57470 0.0 10071519
20:00+25з39700 0.0 1009250
17 апреля, сб
сб1723:00+24зсз29720 0.0 1010218
02:00+23сз26740 0.0 1009140
05:00+23сз267197 0.0 1009171
08:00+21зсз129061 0.8 101369
11:00+30сз35560 0.8 10121316
14:00+32сз564371 0.9 10082149
17:00+31сз454990 0.1 10071409
20:00+24зсз22710 0.1 100958
18 апреля, вс
вс1823:00+21з11893 0.5 101118
02:00+20ююв24953 2.0 101195
05:00+20ю27965 0.1 1011169
08:00+21ююв389530 4.9 1014369
11:00+24ююв378594 6.2 1014480
14:00+29ююв345740 7.4 10101377
17:00+27ююв356236 0.1 1009932
20:00+24ююв277258 0.1 1011261